Location: Ettringen
(48.1054°N, 10.6545°E)
Time: 00:51:36
(UTC+00:00)

Cosmos 2026 Rocket - Pass Details

Date: 18 November 2025
Orbit: 937 x 1000 km, 82.9° (Epoch: 04 December)

Event Time Altitude Azimuth Distance (km) Brightness Sun altitude
Rises 18:13:23 0° 349° (N) 3,615 7.1 -26.0°
Reaches altitude 10° 18:15:52 10° 349° (NNW) 2,670 6.4 -26.4°
Maximum altitude 18:21:57 78° 264° (W) 976 4.0 -27.4°
Drops below altitude 10° 18:28:04 10° 179° (S) 2,685 6.3 -28.5°
Sets 18:30:34 0° 178° (S) 3,636 7.0 -28.9°
